TimeMDT,TemperatureF,Dew PointF,Humidity,Sea Level PressureIn,VisibilityMPH,Wind Direction,Wind SpeedMPH,Gust SpeedMPH,PrecipitationIn,Events,Conditions,WindDirDegrees,DateUTC
12:15 AM,28.4,19.4,69,30.21,10.0,NW,9.2,-,N/A,,Clear,310,2013-10-19 06:15:00
12:35 AM,28.4,19.4,69,30.21,10.0,NW,10.4,-,N/A,,Clear,310,2013-10-19 06:35:00
12:55 AM,28.4,19.4,69,30.21,10.0,NW,9.2,-,N/A,,Clear,320,2013-10-19 06:55:00
1:15 AM,26.6,19.4,74,30.21,10.0,WNW,10.4,-,N/A,,Clear,290,2013-10-19 07:15:00
1:35 AM,28.4,19.4,69,30.20,10.0,NW,13.8,-,N/A,,Clear,310,2013-10-19 07:35:00
1:55 AM,26.6,19.4,74,30.19,10.0,NW,11.5,-,N/A,,Clear,320,2013-10-19 07:55:00
2:15 AM,26.6,19.4,74,30.19,10.0,NNW,8.1,-,N/A,,Clear,330,2013-10-19 08:15:00
2:35 AM,26.6,19.4,74,30.19,10.0,NNW,6.9,-,N/A,,Clear,330,2013-10-19 08:35:00
2:55 AM,26.6,19.4,74,30.18,10.0,WNW,9.2,-,N/A,,Clear,290,2013-10-19 08:55:00
3:15 AM,28.4,19.4,69,30.18,10.0,West,13.8,-,N/A,,Clear,280,2013-10-19 09:15:00
3:35 AM,28.4,19.4,69,30.18,10.0,WNW,13.8,-,N/A,,Clear,290,2013-10-19 09:35:00
3:55 AM,28.4,19.4,69,30.18,10.0,West,12.7,-,N/A,,Clear,280,2013-10-19 09:55:00
4:15 AM,30.2,19.4,64,30.17,10.0,West,15.0,-,N/A,,Clear,270,2013-10-19 10:15:00
4:35 AM,28.4,19.4,69,30.18,10.0,West,13.8,-,N/A,,Clear,270,2013-10-19 10:35:00
4:55 AM,28.4,19.4,69,30.18,10.0,WNW,10.4,-,N/A,,Clear,300,2013-10-19 10:55:00
5:15 AM,28.4,19.4,69,30.18,10.0,NW,11.5,-,N/A,,Clear,310,2013-10-19 11:15:00
5:35 AM,28.4,19.4,69,30.18,10.0,NW,12.7,-,N/A,,Clear,310,2013-10-19 11:35:00
5:55 AM,26.6,19.4,74,30.18,10.0,NW,10.4,-,N/A,,Clear,310,2013-10-19 11:55:00
6:15 AM,26.6,19.4,74,30.18,10.0,NW,6.9,-,N/A,,Clear,320,2013-10-19 12:15:00
6:35 AM,26.6,19.4,74,30.18,10.0,West,12.7,-,N/A,,Clear,280,2013-10-19 12:35:00
6:55 AM,28.4,19.4,69,30.18,10.0,WNW,8.1,-,N/A,,Clear,290,2013-10-19 12:55:00
7:15 AM,24.8,19.4,80,30.18,10.0,WNW,6.9,-,N/A,,Clear,290,2013-10-19 13:15:00
7:35 AM,24.8,19.4,80,30.18,10.0,NW,8.1,-,N/A,,Clear,320,2013-10-19 13:35:00
7:55 AM,26.6,19.4,74,30.17,10.0,NNW,6.9,-,N/A,,Clear,330,2013-10-19 13:55:00
8:15 AM,28.4,21.2,74,30.18,10.0,NW,3.5,-,N/A,,Clear,320,2013-10-19 14:15:00
8:35 AM,28.4,21.2,74,30.18,10.0,NNW,3.5,-,N/A,,Clear,330,2013-10-19 14:35:00
8:55 AM,30.2,21.2,69,30.19,10.0,Calm,Calm,-,N/A,,Clear,0,2013-10-19 14:55:00
9:15 AM,32.0,21.2,64,30.19,10.0,North,3.5,-,N/A,,Clear,350,2013-10-19 15:15:00
9:35 AM,33.8,23.0,65,30.19,10.0,North,3.5,-,N/A,,Clear,350,2013-10-19 15:35:00
9:55 AM,35.6,23.0,60,30.19,10.0,NW,6.9,-,N/A,,Clear,310,2013-10-19 15:55:00
10:15 AM,37.4,24.8,60,30.19,10.0,NW,9.2,-,N/A,,Clear,320,2013-10-19 16:15:00
10:35 AM,41.0,24.8,53,30.18,10.0,NW,12.7,-,N/A,,Clear,310,2013-10-19 16:35:00
10:55 AM,42.8,23.0,46,30.17,10.0,WNW,15.0,21.9,N/A,,Clear,290,2013-10-19 16:55:00
12:55 PM,48.2,23.0,37,30.14,10.0,WNW,19.6,26.5,N/A,,Clear,300,2013-10-19 18:55:00
1:15 PM,50.0,23.0,35,30.14,10.0,WNW,21.9,27.6,N/A,,Clear,300,2013-10-19 19:15:00
1:35 PM,50.0,23.0,35,30.13,10.0,WNW,23.0,31.1,N/A,,Clear,300,2013-10-19 19:35:00
1:55 PM,50.0,23.0,35,30.12,10.0,WNW,25.3,28.8,N/A,,Clear,300,2013-10-19 19:55:00
2:15 PM,50.0,21.2,32,30.11,10.0,WNW,25.3,33.4,N/A,,Clear,300,2013-10-19 20:15:00
2:35 PM,50.0,21.2,32,30.11,10.0,NW,25.3,29.9,N/A,,Clear,310,2013-10-19 20:35:00
2:55 PM,51.8,23.0,33,30.11,10.0,WNW,26.5,29.9,N/A,,Clear,290,2013-10-19 20:55:00
3:15 PM,51.8,21.2,30,30.10,10.0,WNW,24.2,33.4,N/A,,Clear,290,2013-10-19 21:15:00
3:35 PM,51.8,21.2,30,30.10,10.0,WNW,24.2,33.4,N/A,,Clear,290,2013-10-19 21:35:00
3:55 PM,50.0,23.0,35,30.09,10.0,WNW,24.2,31.1,N/A,,Clear,290,2013-10-19 21:55:00
4:15 PM,50.0,23.0,35,30.09,10.0,WNW,24.2,29.9,N/A,,Clear,290,2013-10-19 22:15:00
4:35 PM,50.0,23.0,35,30.09,10.0,WNW,20.7,31.1,N/A,,Clear,290,2013-10-19 22:35:00
4:55 PM,50.0,23.0,35,30.09,10.0,West,15.0,25.3,N/A,,Clear,280,2013-10-19 22:55:00
5:15 PM,50.0,23.0,35,30.09,10.0,WNW,23.0,29.9,N/A,,Clear,300,2013-10-19 23:15:00
5:35 PM,48.2,23.0,37,30.09,10.0,WNW,20.7,28.8,N/A,,Clear,290,2013-10-19 23:35:00
5:55 PM,48.2,23.0,37,30.08,10.0,WNW,16.1,24.2,N/A,,Clear,290,2013-10-19 23:55:00
6:15 PM,46.4,23.0,40,30.08,10.0,WNW,20.7,27.6,N/A,,Clear,290,2013-10-20 00:15:00
6:35 PM,44.6,23.0,43,30.09,10.0,West,11.5,-,N/A,,Clear,280,2013-10-20 00:35:00
6:55 PM,41.0,24.8,53,30.09,10.0,West,10.4,-,N/A,,Clear,270,2013-10-20 00:55:00
7:15 PM,39.2,24.8,56,30.09,10.0,West,10.4,-,N/A,,Clear,260,2013-10-20 01:15:00
7:35 PM,37.4,24.8,60,30.09,10.0,West,9.2,-,N/A,,Clear,270,2013-10-20 01:35:00
7:55 PM,37.4,24.8,60,30.09,10.0,West,10.4,-,N/A,,Clear,270,2013-10-20 01:55:00
8:15 PM,37.4,24.8,60,30.08,10.0,WNW,8.1,-,N/A,,Clear,300,2013-10-20 02:15:00
8:35 PM,35.6,24.8,65,30.09,10.0,NW,5.8,-,N/A,,Clear,320,2013-10-20 02:35:00
8:55 PM,33.8,24.8,70,30.08,10.0,WNW,8.1,-,N/A,,Clear,290,2013-10-20 02:55:00
9:15 PM,37.4,24.8,60,30.08,10.0,West,8.1,-,N/A,,Clear,280,2013-10-20 03:15:00
9:35 PM,35.6,23.0,60,30.08,10.0,NW,5.8,-,N/A,,Clear,310,2013-10-20 03:35:00
9:55 PM,33.8,24.8,70,30.09,10.0,NW,8.1,-,N/A,,Clear,320,2013-10-20 03:55:00
10:15 PM,33.8,23.0,65,30.09,10.0,West,11.5,-,N/A,,Clear,270,2013-10-20 04:15:00
10:35 PM,32.0,23.0,69,30.09,10.0,Calm,Calm,-,N/A,,Clear,0,2013-10-20 04:35:00
10:55 PM,30.2,23.0,75,30.09,10.0,Calm,Calm,-,N/A,,Clear,0,2013-10-20 04:55:00
11:15 PM,30.2,23.0,75,30.09,10.0,WNW,3.5,-,N/A,,Scattered Clouds,290,2013-10-20 05:15:00
11:35 PM,30.2,23.0,75,30.09,10.0,West,3.5,-,N/A,,Clear,260,2013-10-20 05:35:00
11:55 PM,30.2,23.0,75,30.09,10.0,West,6.9,-,N/A,,Clear,260,2013-10-20 05:55:00